User: anonymous   Login
Location: Cheching
(60.0667°N, 164.2167°W)
Time: 09:58:33
(UTC+00:00)
Language:

SPROUT - Orbit

View from above orbital plane
View from above orbital plane
View from above satellite
View from above satellite

Ground track
Ground track

The orbit data is extracted from the following two-line orbital elements,

1 39770U 14029E   22180.79783853  .00004267  00000-0  43681-3 0  9999
2 39770  97.9440 297.8125 0009618  54.3971 305.8124 14.91017608439509
Epoch (UTC): 29 June 2022 19:08:53
Eccentricity: 0.0009618
inclination: 97.9440°
perigee height: 588 km
apogee height: 601 km
right ascension of ascending node: 297.8125°
argument of perigee: 54.3971°
revolutions per day: 14.91017608
mean anomaly at epoch: 305.8124°
orbit number at epoch: 43950

The dashed part of the orbit path shows where the satellite is in the earth's shadow,  

DLR